Theta_e
329 329 329 327 327 328 328 328 326 327 328 329 329 329 328 328 327 326 326 326 325 325 324 323 322 321 321 322 322 322 321 321 320 319 318 318 319 319 319 318 318 317 317 316 316 316 315 315 315 314 314 313 313 313 313 312 312 311 311 309 309 309 310 309 309 309 308 308 307
329 329 327 324 324 326 328 326 326 326 327 330 329 329 329 328 327 326 326 326 326 325 324 323 321 321 320 321 321 321 320 319 319 318 317 318 318 318 318 317 317 317 317 316 316 315 315 314 314 314 313 313 312 312 311 311 311 310 309 308 308 308 308 308 308 307 307 307 306
328 329 328 328 327 327 327 327 327 328 329 329 330 330 329 329 327 326 326 325 326 325 323 321 320 320 321 321 321 321 320 319 318 318 318 318 318 317 317 316 316 316 315 315 315 315 314 314 313 312 311 311 311 310 310 310 310 309 308 307 307 306 306 305 306 305 305 304 304
327 328 328 328 328 328 327 327 327 328 329 329 329 330 329 328 327 326 326 325 325 324 322 321 320 320 320 320 320 320 319 317 317 318 318 318 317 317 317 316 316 315 315 316 315 314 314 313 312 311 310 310 309 309 308 308 308 308 307 306 305 305 304 303 303 303 303 302 301
325 327 327 327 328 328 328 328 328 328 328 328 327 328 328 327 326 326 325 323 323 322 322 321 320 320 320 319 319 319 318 316 314 315 317 317 317 316 316 315 315 314 314 314 314 314 313 312 311 310 310 309 308 307 307 307 307 306 304 303 303 303 302 301 301 301 300 299 299
325 326 327 328 327 327 328 328 328 328 328 328 327 327 326 326 325 324 323 321 321 321 320 318 318 317 317 319 318 317 317 316 315 315 316 316 315 315 315 314 314 314 313 313 313 312 311 310 309 308 307 306 306 305 305 305 304 303 302 301 300 300 300 300 299 299 298 297 296
325 326 327 327 327 327 328 328 328 328 328 327 327 327 326 325 324 323 322 321 321 320 318 315 315 316 317 317 316 316 315 315 315 315 315 314 314 314 313 313 312 311 311 311 310 309 309 308 306 304 302 301 302 302 303 303 303 301 300 299 298 298 298 298 297 297 296 296 295
324 325 325 327 327 327 327 327 327 327 326 326 326 326 326 325 323 322 321 320 319 317 316 315 316 317 316 315 315 314 314 314 313 314 314 314 313 312 311 311 310 309 309 308 308 307 306 306 304 303 301 300 300 300 301 302 301 300 299 297 296 296 296 296 296 296 295 295 294
322 323 324 325 325 326 326 326 326 326 325 325 325 325 325 324 323 321 320 318 316 316 315 315 316 316 315 314 314 313 313 312 312 312 312 312 311 310 309 308 308 307 307 306 306 305 305 304 303 302 301 300 299 299 299 300 300 299 297 296 295 294 294 295 295 295 294 294 294
320 321 322 322 324 324 324 325 325 325 325 324 325 324 322 318 319 319 318 316 315 314 314 315 315 314 314 313 312 312 311 311 311 310 310 310 309 308 307 306 306 305 304 304 304 304 303 302 301 301 300 299 298 298 298 298 298 297 295 294 293 293 293 293 293 293 293 293 293
317 319 320 321 322 322 322 323 322 322 323 323 322 321 319 316 317 317 317 315 314 314 314 314 313 313 312 311 310 310 310 309 309 309 308 308 307 306 306 305 304 303 302 302 302 302 301 301 300 299 298 297 297 297 297 297 296 295 294 293 292 292 292 292 292 292 292 292 291
314 316 318 319 320 320 320 321 320 320 320 320 320 319 318 317 317 316 314 313 313 313 312 312 312 311 310 309 309 308 307 308 307 307 306 306 305 305 304 303 303 302 301 301 301 300 300 299 298 297 297 296 296 296 296 295 295 294 292 292 291 291 291 291 291 291 291 291 290
312 313 315 317 317 318 319 318 318 318 318 318 317 316 315 315 314 314 313 312 312 311 311 310 310 310 309 308 307 307 306 306 306 305 305 304 303 302 302 301 301 300 300 300 299 299 298 298 297 297 296 295 295 295 294 294 293 292 291 291 291 290 290 290 290 290 290 290 290
311 312 313 315 315 316 316 316 316 315 315 315 314 313 313 313 312 312 311 311 311 309 308 308 307 307 307 306 305 305 304 304 304 304 303 302 301 300 300 300 299 299 298 298 298 298 298 297 297 296 295 294 294 294 293 293 293 292 291 290 290 290 290 290 290 290 290 289 289
310 311 312 313 314 314 315 315 314 313 312 312 312 311 311 310 310 310 310 309 308 307 306 306 305 304 304 304 303 303 303 303 303 302 301 300 299 299 299 298 298 297 297 296 297 297 296 296 296 295 294 293 293 293 292 293 292 292 291 290 290 289 289 289 290 290 289 289 289
310 310 311 312 312 313 313 313 312 310 310 310 309 309 309 308 308 308 307 307 306 305 304 303 303 302 301 301 301 301 302 302 302 301 300 299 298 298 298 297 296 296 296 295 295 295 295 295 294 294 293 292 292 292 292 292 292 291 291 290 290 289 289 289 289 289 289 289 288
309 310 310 310 311 311 311 311 310 308 307 307 307 307 307 307 306 305 304 304 303 303 302 301 301 300 299 298 299 299 300 300 300 299 299 298 298 297 296 296 295 295 295 294 294 294 293 293 293 292 292 292 291 291 291 291 291 290 290 290 289 289 289 289 289 289 289 288 288
308 308 309 309 309 310 309 309 308 307 306 305 305 305 305 305 304 303 302 302 302 301 300 299 299 298 298 298 298 298 298 299 299 298 298 297 297 296 295 295 294 294 294 293 293 292 292 291 291 291 291 291 290 290 290 290 289 289 289 289 289 288 288 288 289 289 289 288 287
306 306 307 307 308 308 307 306 306 305 304 304 304 304 304 303 303 302 301 301 301 300 299 298 297 297 297 297 298 297 297 298 298 297 297 296 296 295 294 293 293 293 292 292 291 291 290 290 290 290 289 289 289 289 289 289 288 288 288 288 288 288 288 288 288 288 288 288 287
304 305 305 305 305 305 304 304 304 303 302 302 302 302 301 301 301 301 300 300 299 299 298 297 296 296 296 297 297 297 297 297 297 296 295 295 294 293 293 292 292 291 291 290 290 289 289 289 289 288 288 288 288 288 287 287 287 287 287 286 287 287 287 287 287 287 287 287 286
303 303 303 303 303 302 302 301 301 300 300 300 299 299 299 299 299 299 298 298 298 298 297 296 296 296 296 296 296 296 296 295 295 294 294 293 293 292 291 291 290 290 289 289 289 288 288 288 288 287 287 287 287 287 286 286 286 286 285 285 285 286 286 286 286 286 286 286 286
300 300 300 301 300 300 299 298 298 298 297 297 297 297 297 296 296 296 296 296 296 296 296 295 295 295 296 296 296 295 294 294 293 293 292 292 291 290 290 289 289 289 288 288 288 287 287 287 287 287 287 286 286 286 286 285 285 285 284 284 285 285 285 285 285 285 285 286 286
297 297 297 297 296 296 295 295 295 295 295 295 294 294 294 294 294 294 294 295 295 295 295 295 295 296 296 296 295 294 293 292 292 291 291 291 290 289 289 289 288 288 287 287 287 287 287 286 287 287 287 286 286 286 285 285 285 284 284 284 284 284 284 284 284 284 284 285 285
294 294 294 294 293 293 293 293 293 293 292 292 292 292 291 291 291 292 292 293 293 293 294 294 295 295 295 295 294 293 292 291 291 290 290 289 289 288 288 288 288 287 287 287 287 286 286 286 286 286 286 286 285 285 285 285 284 284 284 283 283 283 283 283 283 284 284 284 284
292 292 292 292 292 292 292 292 291 291 290 290 290 290 289 288 289 289 290 290 291 292 292 293 293 293 293 293 292 292 291 291 290 289 289 288 288 288 287 287 287 287 286 286 286 286 286 286 286 286 285 285 285 285 285 284 284 284 284 283 283 283 282 282 282 283 283 283 284
290 290 290 290 290 290 290 290 290 289 289 289 289 288 288 287 287 288 288 289 289 290 291 291 291 291 291 291 291 291 290 290 289 289 288 287 287 287 287 286 286 286 286 285 286 286 286 287 286 285 285 285 285 285 284 284 284 284 284 283 283 282 282 281 281 282 282 283 283
289 289 289 289 288 288 289 289 288 288 287 288 288 287 287 286 286 286 286 287 287 288 288 289 290 289 289 290 290 290 289 289 289 288 287 287 287 286 286 286 286 286 285 284 286 286 287 287 286 286 285 285 285 284 284 284 284 284 284 283 283 282 281 281 281 281 281 282 282
288 288 288 287 287 287 287 287 287 287 287 287 287 287 286 286 286 286 286 286 286 287 287 288 289 289 289 289 289 289 288 288 288 287 287 287 286 286 286 286 286 286 285 285 286 287 287 287 286 286 285 284 285 284 284 283 283 283 283 282 282 282 281 281 281 280 280 280 281
288 287 286 286 286 286 286 287 286 286 286 286 286 286 286 285 285 286 286 286 286 287 288 288 288 288 289 289 288 288 288 287 287 287 287 286 286 286 286 286 286 285 286 286 287 287 287 287 286 286 285 285 284 284 283 283 283 283 282 282 282 281 281 281 281 280 280 280 280
287 286 286 285 285 285 286 286 286 286 286 286 286 285 285 285 285 285 285 285 287 288 289 288 288 288 288 288 288 287 287 287 287 286 286 286 286 286 286 286 286 286 286 287 287 287 287 287 286 286 285 285 284 283 283 282 282 282 282 281 281 281 281 281 281 280 280 280 280
286 286 285 285 285 285 285 285 285 286 286 286 285 285 285 285 285 286 286 286 288 288 288 288 288 288 288 288 287 287 286 286 286 286 286 286 285 285 286 286 286 286 287 287 288 287 287 287 286 286 285 285 283 283 283 282 282 282 281 281 281 281 281 281 280 280 280 280 279
285 285 285 285 285 285 285 285 285 285 285 285 285 285 285 286 286 287 287 288 288 288 288 287 287 287 287 287 286 286 286 286 286 285 286 286 286 286 286 287 287 287 287 288 288 287 287 287 286 286 285 284 283 282 282 282 282 281 281 281 281 281 281 280 280 280 280 280 280
285 285 285 285 285 285 284 284 284 284 284 284 285 285 285 286 286 287 287 287 287 287 287 287 287 287 286 286 286 286 286 286 286 285 285 286 286 286 287 287 287 287 287 288 288 287 287 287 286 286 285 284 282 282 282 282 281 281 280 280 281 280 280 280 280 280 280 280 280
285 285 285 285 285 284 284 284 284 284 284 284 284 285 285 285 286 286 286 286 286 287 287 287 287 287 286 286 286 285 285 285 286 286 286 286 286 286 287 287 288 288 288 288 288 287 287 287 286 285 284 282 281 281 281 281 281 280 280 280 280 280 280 280 280 280 280 280 280
285 285 285 285 284 284 283 283 283 283 284 284 284 284 285 285 285 285 285 285 286 286 286 286 286 286 286 286 286 286 285 285 286 286 286 286 287 287 287 287 287 288 288 288 288 287 287 286 286 285 283 281 281 281 281 280 280 279 279 279 279 279 279 279 279 279 279 279 280
285 285 285 284 284 283 283 283 283 283 283 283 283 283 284 284 284 284 284 285 285 285 285 285 286 286 286 286 286 286 286 285 285 285 286 286 286 287 287 287 287 288 288 288 288 287 287 286 285 284 283 281 281 280 280 280 279 279 279 278 278 278 278 278 278 278 278 279 279
285 285 285 284 283 283 283 282 282 283 283 283 283 283 283 283 283 283 284 284 284 284 285 285 285 285 285 285 285 286 286 286 286 285 285 286 286 286 287 287 287 287 288 288 287 287 287 286 285 284 282 281 280 280 280 279 279 279 278 278 278 278 278 278 277 277 277 278 278
285 285 285 284 283 283 282 282 282 282 283 283 282 282 282 282 282 283 283 283 284 284 284 284 284 285 285 285 285 285 286 286 286 285 285 285 286 286 287 286 287 287 287 287 287 287 286 286 285 284 282 280 280 279 279 279 278 278 278 278 277 277 277 277 277 277 277 277 277
285 285 284 284 283 283 282 282 282 282 282 282 282 282 282 282 282 282 282 283 284 284 284 284 284 284 285 285 285 285 285 286 286 286 285 285 286 286 287 286 286 286 286 287 287 287 286 286 285 283 282 280 280 279 279 278 278 278 278 277 277 277 276 276 276 276 277 277 276
284 284 284 284 283 282 282 282 282 282 282 282 281 281 281 281 281 282 282 283 283 284 284 284 284 284 284 284 284 284 284 285 285 286 285 285 285 286 286 286 286 286 286 287 287 287 286 285 284 283 282 280 280 279 279 278 278 277 277 277 277 276 276 276 276 276 276 276 276
284 283 283 283 283 282 282 282 282 282 282 281 281 281 281 281 281 282 282 282 283 283 284 284 284 283 283 283 284 283 283 284 285 285 285 285 285 285 286 286 286 286 286 286 287 286 286 285 284 283 282 280 279 279 279 278 278 277 277 277 277 276 276 276 276 276 276 276 277
Wind_Speed
14 12 11 10 9 9 9 8 8 7 8 9 9 9 9 8 8 8 8 8 8 8 8 7 7 7 8 11 11 11 11 10 10 10 9 9 9 10 10 9 9 9 9 9 9 8 7 7 6 6 5 5 6 6 6 5 6 7 6 6 5 5 6 7 6 6 6 6 5
14 13 11 9 8 8 8 8 7 7 7 8 9 9 9 9 8 8 8 8 8 7 7 7 7 8 10 12 12 11 11 11 11 11 10 10 10 10 10 9 9 9 10 10 9 8 7 7 7 6 5 5 6 6 6 5 6 7 7 7 5 5 5 5 5 6 6 6 5
14 13 11 10 10 10 9 9 9 9 9 9 9 9 9 8 8 8 8 8 8 8 7 7 8 10 12 12 12 11 11 11 12 11 11 10 11 10 10 9 9 10 10 10 9 8 7 7 6 6 5 5 6 6 6 6 6 7 7 7 5 4 4 4 4 5 4 4 4
14 13 12 12 13 13 12 10 10 11 11 9 9 8 8 7 7 7 7 8 8 8 8 8 8 10 11 12 12 12 11 12 12 12 11 10 11 11 11 10 10 10 10 10 9 9 8 8 6 5 5 6 7 6 6 6 6 6 5 5 4 4 4 4 4 4 3 3 4
15 14 13 13 15 15 13 11 12 12 10 8 7 7 7 7 6 6 7 7 7 8 8 10 9 9 10 12 13 13 12 12 11 11 11 11 11 11 11 11 10 10 10 10 10 9 9 8 6 5 5 6 6 5 6 6 6 5 5 4 3 3 3 4 4 3 3 3 3
14 14 14 12 14 13 12 11 12 12 10 9 8 8 7 6 6 7 7 8 8 9 10 10 9 10 11 12 13 13 12 12 11 10 10 11 11 11 12 12 11 10 9 9 10 9 9 7 5 4 4 4 5 5 5 6 6 5 5 4 3 3 3 4 4 4 4 4 5
15 15 14 13 13 12 12 11 11 11 10 9 11 11 10 9 9 9 10 9 8 8 9 8 9 10 11 13 12 12 11 11 11 11 11 11 11 11 12 11 10 10 9 9 9 8 8 7 5 4 4 4 4 5 5 6 6 6 5 5 4 4 4 4 4 4 5 6 7
14 15 15 15 14 14 13 12 10 10 9 9 11 13 13 12 12 12 11 9 9 8 8 8 11 13 13 13 12 12 12 12 11 11 11 11 11 11 11 11 10 10 9 9 9 8 7 6 5 5 5 4 4 4 5 6 6 6 6 6 5 4 4 4 4 4 5 7 7
12 13 14 13 13 12 13 13 11 11 11 11 12 13 13 13 13 12 11 9 9 9 9 9 12 14 14 14 13 13 12 12 12 11 11 11 12 12 11 10 10 10 9 8 9 8 8 6 5 5 5 4 4 5 6 7 7 7 7 6 6 5 5 4 5 5 6 7 7
12 13 13 11 12 11 10 11 11 12 12 12 12 12 12 11 12 12 11 9 9 9 10 10 12 14 14 14 13 12 12 11 11 11 11 11 12 12 11 10 10 10 9 8 8 8 8 6 5 5 5 5 6 6 7 7 8 8 7 5 6 7 7 6 6 6 7 7 7
12 13 12 11 11 10 9 10 10 10 11 11 11 11 11 11 11 11 10 9 10 11 11 12 13 14 14 13 12 12 11 10 10 11 11 11 11 12 11 11 11 10 10 9 8 7 6 6 6 7 7 6 7 7 8 8 8 8 8 7 7 8 8 7 7 7 7 7 8
12 12 12 11 10 9 9 10 9 9 9 10 11 11 10 10 11 11 10 11 11 12 12 12 13 14 13 11 11 11 10 10 11 11 11 11 11 11 11 11 11 11 10 9 8 7 6 6 7 8 9 8 7 7 7 9 9 9 9 9 9 8 8 8 7 7 6 7 8
11 11 11 10 9 9 9 9 8 8 9 9 10 10 9 9 10 11 11 12 12 11 10 11 12 12 11 11 10 10 10 11 11 11 11 11 11 11 11 10 10 10 10 9 8 7 7 7 9 10 10 9 7 7 8 9 9 9 10 10 9 9 9 9 8 7 7 8 8
10 10 10 10 9 9 9 8 8 7 8 9 9 9 9 9 9 10 11 11 11 10 10 10 9 9 9 10 10 10 11 11 11 12 11 11 11 11 11 10 10 10 9 8 7 7 8 8 9 10 10 10 9 8 8 9 9 9 10 10 10 10 9 9 8 8 9 9 9
9 10 10 10 10 9 8 8 7 7 7 8 8 8 8 8 8 9 10 10 10 10 9 9 8 7 8 9 10 10 11 11 12 12 12 11 11 10 10 10 10 10 9 8 8 8 9 9 10 10 10 10 10 10 9 8 9 9 9 9 10 9 9 9 9 9 9 9 9
9 9 10 10 10 9 8 8 6 6 7 8 8 8 8 8 8 8 9 10 9 9 9 9 9 8 7 8 9 10 10 11 11 11 11 11 11 11 10 10 10 10 10 9 9 8 9 9 9 10 10 10 10 10 9 9 9 9 9 9 9 9 9 9 9 9 9 9 9
9 9 10 10 10 10 9 8 6 6 7 8 8 8 8 8 7 7 8 10 9 9 9 10 9 9 8 8 8 9 9 10 10 10 11 11 11 11 11 11 10 10 10 10 10 10 9 9 9 9 10 10 10 9 9 9 9 9 9 9 8 8 8 8 8 9 9 9 9
9 9 9 10 9 9 8 8 7 7 8 8 8 8 8 8 8 8 8 9 10 11 11 11 9 9 9 10 9 8 9 10 10 10 10 11 12 12 11 11 11 11 11 11 11 11 11 10 10 10 10 9 9 9 9 9 9 9 9 9 8 8 8 7 8 8 8 8 8
8 8 8 8 8 8 8 8 8 8 8 8 8 8 8 9 9 9 9 9 10 12 13 12 10 9 10 10 10 9 9 9 10 10 11 11 11 11 11 11 11 11 11 11 11 11 11 11 11 11 10 10 9 9 9 9 9 9 9 8 8 7 7 7 7 7 7 8 8
7 7 7 7 7 7 7 7 8 8 8 7 8 8 8 9 9 10 10 9 10 11 12 12 11 10 10 11 11 10 9 8 10 11 11 11 11 11 11 12 11 11 11 11 11 12 12 12 12 12 11 11 11 10 10 10 10 9 9 8 8 7 7 7 7 7 7 7 8
6 5 5 5 6 6 6 7 7 7 7 7 8 8 8 9 9 9 10 10 10 11 11 12 12 12 12 11 11 11 9 8 10 10 11 11 11 11 11 12 12 11 11 11 11 12 12 12 12 12 12 12 12 11 11 10 10 10 9 8 7 7 7 7 7 7 7 7 7
4 4 4 5 5 6 6 6 7 7 7 7 7 8 8 8 8 8 9 9 10 10 10 11 11 12 12 13 12 11 10 9 10 10 10 10 11 11 11 11 11 11 11 11 12 12 12 12 12 12 11 11 11 11 11 11 11 10 10 9 8 8 8 7 7 7 7 7 7
4 4 4 4 5 6 6 6 7 7 7 7 7 7 8 8 8 8 8 9 9 9 10 9 10 11 12 12 12 12 11 11 10 10 10 10 10 10 10 10 11 11 11 11 11 12 12 11 11 11 11 11 11 12 11 11 11 11 10 10 10 9 8 7 7 7 7 7 7
4 4 4 4 5 6 6 7 7 7 7 7 7 7 8 8 8 8 8 8 8 9 9 8 9 10 11 11 11 11 12 12 12 11 11 10 10 10 10 9 10 10 10 9 10 11 11 10 10 10 10 10 11 11 11 11 10 11 11 11 10 9 8 8 7 7 7 7 7
4 4 4 5 5 6 6 7 7 7 7 7 8 8 8 8 8 8 8 8 8 8 9 8 9 9 9 10 10 10 11 12 13 13 12 11 10 10 9 9 8 8 8 8 11 13 12 11 10 10 10 10 10 10 10 10 10 10 10 11 10 10 9 8 8 7 7 7 6
5 5 5 5 6 6 6 7 7 7 7 7 8 8 8 7 7 8 8 8 8 8 9 9 9 9 9 9 10 10 10 10 11 12 13 12 11 10 9 8 7 7 7 8 13 14 14 14 13 11 10 10 10 10 10 9 10 10 10 10 10 10 10 9 8 8 7 6 6
5 5 5 5 5 6 6 6 6 7 7 7 8 8 7 7 7 7 8 8 8 8 8 8 8 8 8 9 10 10 10 9 10 11 12 12 12 11 10 8 7 6 7 11 15 16 16 15 15 14 12 11 10 10 10 9 10 10 10 9 9 9 10 10 9 9 8 7 6
5 5 6 6 6 6 6 6 6 6 7 7 8 8 7 7 8 8 8 8 8 8 8 7 7 7 7 7 9 10 10 10 10 10 10 11 11 11 10 8 7 7 10 15 17 17 17 17 16 16 14 11 10 10 10 10 10 9 8 8 8 9 9 9 9 9 9 8 7
6 6 6 6 6 6 6 6 6 6 7 7 7 7 7 8 8 8 8 9 9 9 8 7 6 6 6 7 9 9 10 10 10 10 10 10 10 10 9 8 8 10 13 18 18 18 18 17 17 17 15 13 10 8 8 8 8 8 8 7 8 8 8 8 8 8 8 9 8
6 6 6 6 6 6 6 6 6 6 6 6 7 7 7 8 8 8 9 9 9 9 8 7 7 7 8 9 9 9 9 9 9 10 10 11 10 9 9 9 9 11 15 19 19 18 18 18 18 17 16 14 10 8 7 7 8 8 7 7 8 8 9 9 9 9 9 9 9
5 5 6 6 6 6 6 6 6 6 6 6 7 7 8 8 9 9 9 9 9 8 8 8 9 9 10 10 10 10 10 10 10 10 10 10 10 10 10 10 10 12 15 20 19 19 18 18 18 17 16 14 10 8 7 7 7 7 7 7 8 9 9 9 9 9 10 10 9
6 6 6 6 6 6 6 6 6 6 7 7 7 7 8 8 8 8 8 8 8 8 8 9 9 10 10 10 10 10 11 10 10 10 10 10 10 10 10 10 11 13 15 20 19 19 19 18 18 17 16 15 10 8 8 8 7 7 7 8 9 9 9 8 8 9 10 10 10
6 6 6 6 6 6 6 6 6 7 7 7 7 7 7 8 7 7 7 7 7 8 9 10 10 11 11 11 11 11 11 10 10 10 10 10 11 11 11 10 10 13 16 20 19 19 19 19 18 18 16 14 10 8 8 8 6 6 6 7 8 8 9 8 8 9 10 10 9
7 7 7 7 7 7 7 7 7 7 7 7 7 7 7 7 7 7 7 6 7 7 8 9 10 10 11 11 11 11 10 9 10 10 11 11 11 11 11 9 8 12 17 20 19 19 19 19 18 18 16 13 9 8 8 8 6 6 7 7 8 8 8 8 8 8 9 9 8
8 8 8 8 8 8 7 7 7 7 7 8 7 7 7 7 7 7 7 7 7 7 7 7 8 8 8 9 10 10 10 10 10 10 11 11 12 12 11 10 9 13 18 20 19 19 19 19 19 18 16 12 8 7 8 8 7 7 8 8 8 8 7 7 7 7 8 8 7
8 8 9 9 8 8 8 8 8 8 8 8 8 8 8 7 7 7 7 7 7 7 8 8 8 8 8 9 8 9 10 10 10 10 10 10 11 12 12 11 12 15 18 19 19 19 19 19 19 18 15 11 8 7 7 7 7 7 8 8 8 8 8 7 6 6 6 6 7
7 8 8 9 9 9 9 9 9 9 9 9 8 8 8 8 7 7 7 7 8 8 9 9 9 9 9 9 9 9 10 10 10 10 9 9 10 11 12 12 13 15 17 19 19 19 19 20 19 18 15 10 8 7 7 6 6 7 8 8 8 8 7 6 6 6 6 6 6
7 7 8 9 9 9 9 9 9 9 9 9 8 8 7 7 7 7 7 7 8 9 9 9 9 9 9 9 9 9 9 9 10 10 10 9 10 11 12 13 13 14 16 18 19 19 20 20 19 17 14 9 9 8 7 6 6 7 7 7 7 7 6 5 5 5 5 6 6
6 7 7 8 8 8 8 8 8 8 8 8 8 7 7 6 6 6 6 7 7 8 9 9 9 9 9 9 8 8 9 9 9 9 9 9 9 10 11 13 13 13 15 18 19 20 20 20 19 17 14 9 8 7 7 6 7 7 7 6 6 6 6 5 4 4 5 6 6
6 6 7 7 8 8 8 8 8 7 7 7 7 7 7 6 6 6 6 5 6 7 8 8 9 8 8 8 8 9 9 9 9 8 8 7 8 8 10 11 12 13 15 17 19 19 20 20 19 17 14 9 8 7 6 6 7 7 7 6 6 6 6 5 5 4 5 6 6
6 6 6 7 7 8 8 8 8 7 6 7 7 7 6 6 6 6 6 5 6 6 6 7 8 8 8 8 8 8 9 9 9 8 7 7 7 8 8 10 11 13 14 16 18 19 19 19 19 17 14 9 7 6 6 6 7 7 7 7 6 6 6 6 5 5 5 6 6
Wind_Direction
211 209 207 204 202 202 202 203 204 203 200 197 198 197 196 193 192 191 189 189 189 184 178 176 175 172 170 171 169 167 165 162 161 162 164 166 163 159 154 148 149 149 148 145 143 142 143 145 144 144 145 148 148 148 149 150 152 151 147 142 142 145 150 153 152 152 151 145 140
210 209 206 200 198 199 200 201 200 200 200 199 198 197 196 193 192 189 188 190 188 180 172 170 167 167 168 170 169 167 164 161 160 161 163 166 162 158 153 148 152 152 151 148 146 146 148 150 147 145 145 147 147 147 148 152 152 149 145 142 140 143 147 149 148 146 144 139 138
209 207 203 199 199 199 200 201 199 198 199 199 198 197 195 192 191 188 186 188 182 175 169 167 166 168 170 170 170 169 165 162 161 163 165 167 162 157 153 150 154 154 153 151 151 151 151 151 147 145 145 147 147 147 149 154 152 149 146 145 145 146 146 143 139 138 137 135 136
209 206 203 201 202 202 202 201 199 198 198 200 199 196 192 188 187 185 182 181 176 173 170 166 167 169 170 170 171 170 166 162 161 164 167 167 162 157 153 153 156 156 156 154 154 154 153 151 148 147 148 149 148 149 152 155 153 148 143 142 142 143 143 136 136 136 136 133 132
209 207 206 204 204 204 204 202 199 197 196 195 193 190 186 182 180 178 175 175 176 174 171 167 167 167 169 169 171 169 165 161 161 164 167 167 162 157 155 156 157 157 156 155 155 154 152 149 146 146 147 148 148 150 151 151 147 142 134 130 131 133 133 133 135 136 135 132 129
208 208 207 205 203 203 203 200 197 194 192 190 190 188 184 179 175 173 173 175 174 171 167 164 163 163 165 168 169 167 164 160 161 164 166 165 161 158 157 157 156 154 152 153 152 151 149 146 140 136 135 136 136 141 145 147 143 137 131 127 126 126 127 131 130 132 134 136 133
207 207 206 204 201 200 200 198 195 192 189 189 190 188 185 178 175 174 173 171 168 164 162 160 162 162 164 167 168 167 164 161 162 163 164 163 160 157 156 156 154 151 149 149 148 147 146 143 137 132 130 129 131 139 146 149 145 139 135 131 127 125 125 127 126 131 136 139 137
207 207 207 205 203 202 200 196 191 186 184 187 190 189 185 177 175 172 169 164 163 162 161 162 165 165 165 167 167 166 164 161 162 164 166 164 160 156 153 151 150 149 149 149 148 147 146 143 139 139 140 140 139 144 149 150 145 139 134 131 127 124 124 124 127 133 138 140 138
206 207 207 206 203 202 199 194 189 185 184 187 189 186 182 176 173 169 166 164 163 162 162 164 165 165 165 166 166 165 163 161 162 164 166 165 162 157 152 150 150 149 149 150 150 149 147 143 142 143 146 146 144 146 147 147 141 136 133 128 126 126 125 125 132 136 137 138 137
205 205 205 206 203 201 197 191 188 186 184 186 185 181 176 172 170 168 166 163 160 161 163 165 164 164 164 165 164 163 161 159 160 162 163 164 161 157 154 153 153 151 151 152 151 150 147 143 141 142 142 139 140 142 144 144 140 136 132 127 128 129 130 131 134 136 136 136 135
206 204 203 204 202 199 194 188 187 184 183 182 179 174 170 168 169 167 163 158 159 163 165 164 163 163 163 163 162 161 158 156 157 159 161 162 160 158 156 155 155 154 153 153 151 150 147 143 141 140 138 135 137 140 143 143 138 134 131 128 131 132 134 136 137 137 136 134 131
207 205 203 202 199 195 191 186 184 181 179 176 172 169 167 168 166 162 158 156 161 163 164 162 162 162 162 160 159 157 155 154 155 157 160 160 158 156 154 154 154 154 152 152 152 150 147 144 143 142 140 138 138 142 144 144 139 134 132 132 134 136 138 141 141 139 136 133 130
207 204 201 197 194 191 188 185 181 178 174 171 168 165 164 164 162 159 157 158 160 160 158 158 160 160 159 158 156 155 153 153 155 157 158 158 155 153 152 152 152 152 151 152 152 149 146 145 146 145 144 143 142 144 145 145 141 138 137 138 140 142 144 146 144 141 137 135 132
205 201 198 193 190 188 186 182 178 174 170 167 163 160 158 158 159 158 158 158 156 154 152 152 153 154 155 155 154 152 152 152 154 155 155 154 151 150 150 150 150 150 149 148 147 146 146 147 148 147 146 144 143 144 146 146 144 142 142 143 145 147 148 148 146 142 140 138 135
200 197 193 189 189 188 184 180 175 169 164 162 158 155 153 155 156 156 155 153 150 148 147 147 145 144 145 149 149 149 149 149 152 153 152 150 149 148 148 147 148 148 146 143 142 143 144 145 147 146 145 143 143 144 146 146 144 142 142 144 147 148 149 149 147 145 143 142 139
195 192 190 188 189 187 183 177 169 162 159 158 154 152 151 152 152 151 149 148 145 144 144 144 141 139 138 141 143 143 144 146 149 151 150 149 148 147 147 146 148 147 145 142 141 140 140 142 142 142 142 142 142 144 145 144 141 139 140 142 145 147 148 149 149 148 146 144 142
190 188 186 186 186 184 179 172 163 158 155 154 151 150 150 149 147 147 146 146 145 145 145 144 141 139 140 140 140 140 141 144 149 151 151 150 148 148 147 147 147 147 145 143 141 139 138 138 137 138 138 139 140 141 141 139 136 135 136 138 142 144 147 148 148 147 145 144 142
184 183 183 183 182 178 172 165 158 154 153 151 151 151 150 147 147 147 147 148 148 148 147 143 141 142 144 144 144 143 144 147 152 153 152 149 148 147 147 147 146 146 146 144 142 141 139 138 136 136 136 137 138 138 137 134 131 131 132 134 137 140 143 144 145 144 143 142 141
178 178 178 178 174 169 162 157 153 152 151 150 150 149 148 148 148 148 148 151 151 150 148 144 143 145 147 147 146 145 145 150 152 151 148 146 145 145 145 146 146 146 146 144 143 141 141 140 139 138 138 137 136 135 133 130 128 128 129 130 133 135 137 139 139 138 137 138 139
172 173 173 169 162 156 152 149 147 147 146 145 145 144 145 146 147 148 149 151 151 149 148 146 146 147 148 148 144 143 143 148 148 147 144 142 143 144 145 146 146 146 146 144 143 142 142 142 141 141 140 139 137 135 132 129 127 126 127 127 130 131 132 133 132 131 132 134 136
166 164 160 153 146 143 141 139 137 137 138 138 139 140 141 141 143 145 147 148 147 147 147 148 149 149 149 147 144 143 143 145 145 144 142 141 142 144 145 146 146 146 145 144 144 144 144 144 144 143 142 141 138 136 133 130 129 128 127 127 128 128 129 129 129 130 132 133 135
147 140 134 131 129 128 126 125 126 128 130 131 132 133 133 134 136 138 139 140 142 144 147 149 150 151 150 148 145 144 143 141 141 140 140 140 142 143 144 145 146 145 145 145 145 144 144 144 144 143 142 140 138 136 134 132 131 131 130 129 128 128 128 129 130 131 132 133 132
121 116 112 113 113 114 116 118 120 122 123 125 125 126 126 127 128 129 132 136 140 143 145 147 150 150 149 146 144 143 141 138 136 136 136 138 140 142 144 145 147 147 147 146 146 145 144 143 143 142 141 138 137 136 135 134 134 134 134 133 132 131 131 131 131 132 131 131 129
111 109 109 108 111 114 117 120 120 121 123 124 125 124 124 125 125 128 131 135 138 140 141 142 144 144 143 141 141 141 140 138 137 136 136 138 140 143 145 147 148 149 149 149 149 149 148 145 145 144 142 139 137 136 136 136 137 138 138 138 137 136 135 134 134 134 134 133 131
112 110 109 112 117 120 122 123 125 126 127 127 126 125 125 126 129 131 132 134 135 136 136 134 135 136 138 138 140 140 140 139 139 139 140 141 143 145 147 149 150 151 150 149 152 152 152 150 150 147 144 140 137 136 136 138 140 142 142 143 142 140 139 138 138 138 138 137 137
118 117 117 121 122 124 125 127 128 128 127 128 128 128 128 129 131 132 132 133 133 133 133 132 134 135 137 138 139 140 140 141 141 142 143 144 146 149 152 153 152 151 149 148 154 155 155 154 151 147 143 141 139 138 138 140 143 145 146 146 146 145 145 145 144 143 142 138 135
126 126 125 125 123 125 127 128 126 127 128 131 133 133 133 133 131 131 131 131 131 131 131 132 135 136 137 138 140 141 142 143 144 145 146 147 150 153 156 155 152 150 149 151 155 156 156 154 150 146 142 140 140 141 142 143 146 147 148 149 150 150 150 149 148 147 145 141 138
137 135 132 128 127 128 128 128 128 131 134 137 138 137 135 134 134 134 134 134 133 133 133 135 137 137 138 140 144 145 145 144 145 146 148 149 152 155 157 155 153 151 152 155 157 157 156 153 149 146 143 139 139 140 141 143 147 149 152 153 154 154 154 152 150 149 148 147 146
142 139 136 135 133 132 132 134 137 139 139 139 137 137 137 139 139 139 139 140 142 144 145 145 143 142 142 144 146 145 145 145 146 148 149 150 154 156 156 154 152 152 154 157 158 157 155 153 150 147 144 141 139 139 142 145 148 152 155 157 159 159 158 155 153 152 151 151 151
144 141 139 139 137 136 139 141 141 141 139 137 137 139 141 144 145 146 148 150 153 154 153 150 149 148 148 148 147 147 147 148 149 150 152 154 156 158 157 154 152 154 156 159 158 157 155 153 151 148 146 142 138 138 142 147 151 155 157 160 162 161 160 157 155 155 155 154 155
143 143 141 140 139 140 141 141 140 140 140 141 143 146 149 151 154 156 157 159 158 155 151 149 150 150 150 148 149 149 151 151 152 154 156 157 158 157 156 152 151 153 157 160 158 157 155 154 152 150 147 144 140 140 144 149 154 157 159 161 162 162 160 157 158 158 158 158 158
144 144 143 142 142 142 141 139 140 142 144 147 150 153 155 158 159 160 160 159 155 151 150 152 152 150 149 149 151 152 153 153 155 158 159 159 158 156 153 150 151 154 157 160 158 157 156 155 153 151 148 145 141 141 144 149 152 154 154 156 159 160 160 158 159 161 162 161 162
147 146 146 145 144 142 141 141 143 145 148 151 155 157 159 159 157 156 156 156 155 155 156 157 156 154 153 153 154 155 155 155 157 158 159 160 158 154 151 149 150 154 158 160 158 157 156 156 154 151 148 144 140 141 144 146 146 147 149 152 156 158 158 158 159 161 163 164 165
152 150 149 148 146 144 144 144 146 148 151 155 159 160 160 157 156 156 158 159 159 159 159 159 158 157 157 156 156 156 156 156 157 158 160 161 158 155 151 149 150 156 159 159 158 158 157 156 154 150 146 141 139 141 144 145 144 145 147 149 152 154 156 157 158 159 162 164 167
156 154 153 152 150 149 149 150 151 154 157 160 162 163 163 162 161 161 161 160 157 156 155 155 156 154 154 155 155 154 154 154 157 159 161 162 159 155 152 149 151 157 160 160 159 158 157 156 153 149 145 141 141 143 145 145 145 146 147 148 149 151 152 154 155 157 159 163 167
160 158 156 155 154 154 155 156 158 161 164 167 166 166 166 166 165 163 160 155 153 153 153 153 153 153 153 154 155 156 157 157 159 161 163 163 160 156 152 150 153 158 160 160 160 159 158 156 153 150 147 143 144 145 146 146 145 146 147 148 149 151 152 153 154 156 158 162 166
163 160 158 157 158 159 161 162 164 167 170 171 170 168 167 165 163 161 159 156 156 157 157 156 157 158 159 159 159 161 162 161 161 162 164 165 161 157 153 151 154 159 162 162 161 160 159 157 155 152 150 147 148 148 147 145 144 145 147 149 150 151 153 153 155 158 161 164 166
165 162 160 159 161 162 164 166 169 172 173 172 170 168 166 163 161 161 162 163 163 162 161 161 162 163 162 160 158 158 160 162 164 165 166 167 164 158 154 152 155 159 162 164 163 162 161 159 158 156 154 151 152 151 149 147 147 148 150 151 151 152 154 155 158 163 168 172 173
165 164 162 161 162 163 166 170 174 175 173 169 167 165 164 164 163 164 166 169 167 164 162 162 163 161 158 155 153 154 158 163 167 168 169 169 166 160 155 153 155 159 163 165 165 164 163 162 161 160 157 153 153 152 150 148 149 150 151 152 152 154 157 160 164 170 175 180 186
163 163 162 162 163 164 167 172 174 173 169 165 164 163 165 166 163 162 164 168 167 165 163 161 158 154 151 150 151 154 159 164 168 170 171 169 166 160 156 153 155 158 163 167 167 166 166 165 164 162 160 154 155 153 150 149 150 152 154 156 156 159 163 168 172 176 180 185 193
160 160 162 163 164 166 168 171 171 168 165 162 164 164 164 162 158 158 161 165 165 163 160 156 151 149 148 150 152 156 159 164 168 170 170 167 164 160 156 154 155 159 164 168 170 169 169 168 167 165 163 158 157 155 153 151 152 157 162 165 165 165 167 171 175 181 187 190 195